Location: Pedholt
(56.0260°N, 10.2097°E)
Time: 07:48:38
(UTC+00:00)

SR - Pass Details

Date: 04 August 2021
Orbit: 581 x 874 km, 66.7° (Epoch: 24 September)

Event Time Altitude Azimuth Distance (km) Brightness Sun altitude
Rises 11:33:48 0° 313° (NW) 3,220 ? 51.0°
Reaches altitude 10° 11:36:22 10° 319° (NW) 2,243 ? 51.0°
Maximum altitude 11:41:20 52° 35° (NE) 861 ? 51.0°
Drops below altitude 10° 11:45:52 10° 113° (ESE) 2,052 ? 50.9°
Sets 11:48:07 0° 118° (ESE) 2,919 ? 50.8°
